Time,TemperatureF,DewpointF,PressureIn,WindDirection,WindDirectionDegrees,WindSpeedMPH,WindSpeedGustMPH,Humidity,HourlyPrecipIn,Conditions,Clouds,dailyrainin,SoftwareType,DateUTC
2013-07-04 00:01:00,73.2,70.4,30.14,South,190,0.0,1.0,91,0.00,,---,0.00,VWS V14.01,2013-07-04 04:01:00,
2013-07-04 00:06:00,73.3,70.5,30.14,South,190,0.0,1.0,91,0.00,,---,0.00,VWS V14.01,2013-07-04 04:06:00,
2013-07-04 00:11:00,73.4,70.6,30.14,South,190,0.0,1.0,91,0.00,,---,0.00,VWS V14.01,2013-07-04 04:11:00,
2013-07-04 00:16:00,73.5,70.7,30.14,South,190,0.0,1.0,91,0.00,,---,0.00,VWS V14.01,2013-07-04 04:16:00,
2013-07-04 00:21:00,73.5,70.7,30.14,South,190,0.0,1.0,91,0.00,,---,0.00,VWS V14.01,2013-07-04 04:21:00,
2013-07-04 00:26:00,73.6,70.8,30.14,South,190,0.0,2.0,91,0.00,,---,0.00,VWS V14.01,2013-07-04 04:26:00,
2013-07-04 00:31:00,73.7,70.9,30.14,South,190,0.0,2.0,91,0.00,,---,0.00,VWS V14.01,2013-07-04 04:31:00,
2013-07-04 00:36:00,73.9,71.1,30.14,South,190,1.0,2.0,91,0.00,,---,0.00,VWS V14.01,2013-07-04 04:36:00,
2013-07-04 00:41:00,74.5,71.7,30.14,SE,138,2.0,7.0,91,0.00,,---,0.00,VWS V14.01,2013-07-04 04:41:00,
2013-07-04 00:46:00,74.9,71.8,30.14,SSE,148,4.0,7.0,90,0.00,,---,0.00,VWS V14.01,2013-07-04 04:46:00,
2013-07-04 00:51:00,75.3,71.8,30.14,SSE,150,4.0,7.0,89,0.00,,---,0.00,VWS V14.01,2013-07-04 04:51:00,
2013-07-04 00:56:00,75.5,71.7,30.14,SSE,150,0.0,4.0,88,0.00,,---,0.00,VWS V14.01,2013-07-04 04:56:00,
2013-07-04 01:01:00,75.6,71.8,30.15,SSE,150,1.0,5.0,88,0.00,,---,0.00,VWS V14.01,2013-07-04 05:01:00,
2013-07-04 01:06:00,75.8,71.7,30.14,SSE,165,4.0,6.0,87,0.00,,---,0.00,VWS V14.01,2013-07-04 05:06:00,
2013-07-04 01:11:00,75.9,71.8,30.15,South,181,2.0,7.0,87,0.00,,---,0.00,VWS V14.01,2013-07-04 05:11:00,
2013-07-04 01:16:00,75.9,71.8,30.14,South,188,2.0,7.0,87,0.00,,---,0.00,VWS V14.01,2013-07-04 05:16:00,
2013-07-04 01:21:00,75.9,71.8,30.14,South,184,0.0,7.0,87,0.00,,---,0.00,VWS V14.01,2013-07-04 05:21:00,
2013-07-04 01:26:00,76.0,71.5,30.14,South,174,0.0,5.0,86,0.00,,---,0.00,VWS V14.01,2013-07-04 05:26:00,
2013-07-04 01:31:00,75.8,71.7,30.14,South,185,0.0,6.0,87,0.00,,---,0.00,VWS V14.01,2013-07-04 05:31:00,
2013-07-04 01:36:00,75.8,71.7,30.14,SE,129,0.0,6.0,87,0.00,,---,0.00,VWS V14.01,2013-07-04 05:36:00,
2013-07-04 01:41:00,75.8,71.7,30.14,South,171,4.0,8.0,87,0.00,,---,0.00,VWS V14.01,2013-07-04 05:41:00,
2013-07-04 01:46:00,75.9,71.4,30.14,SSE,154,0.0,8.0,86,0.00,,---,0.00,VWS V14.01,2013-07-04 05:46:00,
2013-07-04 01:51:00,75.9,71.4,30.14,SSE,162,1.0,8.0,86,0.00,,---,0.00,VWS V14.01,2013-07-04 05:51:00,
2013-07-04 01:56:00,75.9,71.4,30.14,South,175,2.0,8.0,86,0.00,,---,0.00,VWS V14.01,2013-07-04 05:56:00,
2013-07-04 02:01:00,75.9,71.4,30.14,South,179,1.0,8.0,86,0.00,,---,0.00,VWS V14.01,2013-07-04 06:01:00,
2013-07-04 02:06:00,76.0,71.5,30.14,South,179,2.0,8.0,86,0.00,,---,0.00,VWS V14.01,2013-07-04 06:06:00,
2013-07-04 02:11:00,76.0,71.5,30.14,SSE,153,1.0,8.0,86,0.00,,---,0.00,VWS V14.01,2013-07-04 06:11:00,
2013-07-04 02:16:00,75.9,71.4,30.14,SSW,207,3.0,8.0,86,0.00,,---,0.00,VWS V14.01,2013-07-04 06:16:00,
2013-07-04 02:21:00,75.8,71.3,30.14,South,171,1.0,8.0,86,0.00,,---,0.00,VWS V14.01,2013-07-04 06:21:00,
2013-07-04 02:26:00,75.7,71.2,30.14,South,175,0.0,4.0,86,0.00,,---,0.00,VWS V14.01,2013-07-04 06:26:00,
2013-07-04 02:31:00,75.6,71.1,30.14,South,182,4.0,6.0,86,0.00,,---,0.00,VWS V14.01,2013-07-04 06:31:00,
2013-07-04 02:36:00,75.6,71.1,30.13,South,183,2.0,6.0,86,0.00,,---,0.00,VWS V14.01,2013-07-04 06:36:00,
2013-07-04 02:41:00,75.6,71.1,30.14,South,183,0.0,6.0,86,0.00,,---,0.00,VWS V14.01,2013-07-04 06:41:00,
2013-07-04 02:46:00,75.6,71.1,30.14,South,188,1.0,6.0,86,0.00,,---,0.00,VWS V14.01,2013-07-04 06:46:00,
2013-07-04 02:51:00,75.6,71.1,30.14,South,188,0.0,6.0,86,0.00,,---,0.00,VWS V14.01,2013-07-04 06:51:00,
2013-07-04 02:56:00,75.7,71.2,30.14,SSE,155,1.0,5.0,86,0.00,,---,0.00,VWS V14.01,2013-07-04 06:56:00,
2013-07-04 03:01:00,75.7,71.2,30.13,SSE,150,1.0,7.0,86,0.00,,---,0.00,VWS V14.01,2013-07-04 07:01:00,
2013-07-04 03:06:00,75.6,71.1,30.13,SE,138,4.0,7.0,86,0.00,,---,0.00,VWS V14.01,2013-07-04 07:06:00,
2013-07-04 03:11:00,75.5,71.0,30.13,SE,139,0.0,7.0,86,0.00,,---,0.00,VWS V14.01,2013-07-04 07:11:00,
2013-07-04 03:16:00,75.4,70.9,30.13,SE,141,2.0,7.0,86,0.00,,---,0.00,VWS V14.01,2013-07-04 07:16:00,
2013-07-04 03:21:00,75.3,70.8,30.13,SE,132,1.0,7.0,86,0.00,,---,0.00,VWS V14.01,2013-07-04 07:21:00,
2013-07-04 03:26:00,75.3,70.8,30.14,SE,132,1.0,5.0,86,0.00,,---,0.00,VWS V14.01,2013-07-04 07:26:00,
2013-07-04 03:31:00,75.3,70.8,30.13,SSE,151,1.0,7.0,86,0.00,,---,0.00,VWS V14.01,2013-07-04 07:31:00,
2013-07-04 03:36:00,75.3,70.8,30.13,SSE,165,0.0,7.0,86,0.00,,---,0.00,VWS V14.01,2013-07-04 07:36:00,
2013-07-04 03:41:00,75.2,70.7,30.13,SSE,161,4.0,7.0,86,0.00,,---,0.00,VWS V14.01,2013-07-04 07:41:00,
2013-07-04 03:46:00,75.1,70.6,30.13,SSE,161,4.0,7.0,86,0.00,,---,0.00,VWS V14.01,2013-07-04 07:46:00,
2013-07-04 03:51:00,75.1,70.6,30.13,SSE,161,0.0,7.0,86,0.00,,---,0.00,VWS V14.01,2013-07-04 07:51:00,
2013-07-04 03:56:00,75.1,70.6,30.13,SSE,162,0.0,5.0,86,0.00,,---,0.00,VWS V14.01,2013-07-04 07:56:00,
2013-07-04 04:01:00,75.0,70.9,30.14,South,173,1.0,7.0,87,0.00,,---,0.00,VWS V14.01,2013-07-04 08:01:00,
2013-07-04 04:06:00,75.0,70.9,30.14,South,173,2.0,7.0,87,0.00,,---,0.00,VWS V14.01,2013-07-04 08:06:00,
2013-07-04 04:11:00,75.0,70.9,30.14,ESE,107,0.0,7.0,87,0.00,,---,0.00,VWS V14.01,2013-07-04 08:11:00,
2013-07-04 04:16:00,74.9,70.8,30.14,SSE,150,0.0,7.0,87,0.00,,---,0.00,VWS V14.01,2013-07-04 08:16:00,
2013-07-04 04:21:00,74.9,70.8,30.14,SSE,151,0.0,7.0,87,0.00,,---,0.00,VWS V14.01,2013-07-04 08:21:00,
2013-07-04 04:26:00,74.8,70.7,30.14,SSE,151,0.0,4.0,87,0.00,,---,0.00,VWS V14.01,2013-07-04 08:26:00,
2013-07-04 04:31:00,74.7,70.6,30.14,SSE,161,5.0,5.0,87,0.00,,---,0.00,VWS V14.01,2013-07-04 08:31:00,
2013-07-04 04:36:00,74.7,70.6,30.14,SSE,161,0.0,6.0,87,0.00,,---,0.00,VWS V14.01,2013-07-04 08:36:00,
2013-07-04 04:41:00,74.7,70.6,30.14,SSE,161,0.0,6.0,87,0.00,,---,0.00,VWS V14.01,2013-07-04 08:41:00,
2013-07-04 04:46:00,74.8,70.7,30.14,SSE,159,2.0,6.0,87,0.00,,---,0.00,VWS V14.01,2013-07-04 08:46:00,
2013-07-04 04:51:00,74.7,70.6,30.14,SSE,159,0.0,6.0,87,0.00,,---,0.00,VWS V14.01,2013-07-04 08:51:00,
2013-07-04 04:56:00,74.7,70.6,30.14,SSE,159,4.0,5.0,87,0.00,,---,0.00,VWS V14.01,2013-07-04 08:56:00,
2013-07-04 05:01:00,74.7,70.6,30.14,SSE,165,1.0,6.0,87,0.00,,---,0.00,VWS V14.01,2013-07-04 09:01:00,
2013-07-04 05:06:00,74.6,70.5,30.14,SSE,165,1.0,6.0,87,0.00,,---,0.00,VWS V14.01,2013-07-04 09:06:00,
2013-07-04 05:11:00,74.5,70.4,30.14,SSE,161,1.0,8.0,87,0.00,,---,0.00,VWS V14.01,2013-07-04 09:11:00,
2013-07-04 05:16:00,74.5,70.4,30.14,SSE,159,0.0,8.0,87,0.00,,---,0.00,VWS V14.01,2013-07-04 09:16:00,
2013-07-04 05:21:00,74.5,70.7,30.14,SSE,162,2.0,8.0,88,0.00,,---,0.00,VWS V14.01,2013-07-04 09:21:00,
2013-07-04 05:26:00,74.5,70.7,30.14,ESE,117,0.0,5.0,88,0.00,,---,0.00,VWS V14.01,2013-07-04 09:26:00,
2013-07-04 05:31:00,74.5,70.7,30.14,SSW,193,2.0,5.0,88,0.00,,---,0.00,VWS V14.01,2013-07-04 09:31:00,
2013-07-04 05:36:00,74.5,70.7,30.15,South,173,1.0,7.0,88,0.00,,---,0.00,VWS V14.01,2013-07-04 09:36:00,
2013-07-04 05:41:00,74.4,70.6,30.15,SSW,211,3.0,7.0,88,0.00,,---,0.00,VWS V14.01,2013-07-04 09:41:00,
2013-07-04 05:46:00,74.4,70.6,30.14,SSW,202,2.0,7.0,88,0.00,,---,0.00,VWS V14.01,2013-07-04 09:46:00,
2013-07-04 05:51:00,74.3,70.5,30.15,South,185,2.0,7.0,88,0.00,,---,0.00,VWS V14.01,2013-07-04 09:51:00,
2013-07-04 05:56:00,74.3,70.5,30.15,South,190,3.0,8.0,88,0.00,,---,0.00,VWS V14.01,2013-07-04 09:56:00,
2013-07-04 06:01:00,74.5,70.7,30.15,South,175,4.0,10.0,88,0.00,,---,0.00,VWS V14.01,2013-07-04 10:01:00,
2013-07-04 06:06:00,74.6,70.8,30.15,SW,217,7.0,10.0,88,0.00,,---,0.00,VWS V14.01,2013-07-04 10:06:00,
2013-07-04 06:11:00,74.7,70.9,30.15,SW,218,3.0,10.0,88,0.00,,---,0.00,VWS V14.01,2013-07-04 10:11:00,
2013-07-04 06:16:00,74.7,70.9,30.15,SSW,199,1.0,10.0,88,0.00,,---,0.00,VWS V14.01,2013-07-04 10:16:00,
2013-07-04 06:21:00,74.7,70.9,30.15,SW,230,4.0,10.0,88,0.00,,---,0.00,VWS V14.01,2013-07-04 10:21:00,
2013-07-04 06:26:00,74.7,70.9,30.16,SSE,154,5.0,7.0,88,0.00,,---,0.00,VWS V14.01,2013-07-04 10:26:00,
2013-07-04 06:31:00,74.7,70.9,30.16,SE,124,7.0,9.0,88,0.00,,---,0.00,VWS V14.01,2013-07-04 10:31:00,
2013-07-04 06:36:00,74.7,70.9,30.16,SSW,209,5.0,9.0,88,0.00,,---,0.00,VWS V14.01,2013-07-04 10:36:00,
2013-07-04 06:41:00,74.7,70.9,30.16,SSW,204,1.0,9.0,88,0.00,,---,0.00,VWS V14.01,2013-07-04 10:41:00,
2013-07-04 06:46:00,74.8,71.0,30.16,SSW,199,4.0,10.0,88,0.00,,---,0.00,VWS V14.01,2013-07-04 10:46:00,
2013-07-04 06:51:00,74.9,71.1,30.16,SW,219,3.0,10.0,88,0.00,,---,0.00,VWS V14.01,2013-07-04 10:51:00,
2013-07-04 06:56:00,74.9,71.1,30.16,South,182,0.0,6.0,88,0.00,,---,0.00,VWS V14.01,2013-07-04 10:56:00,
2013-07-04 07:01:00,75.0,71.2,30.16,South,178,2.0,6.0,88,0.00,,---,0.00,VWS V14.01,2013-07-04 11:01:00,
2013-07-04 07:06:00,75.1,71.3,30.16,SSE,151,0.0,7.0,88,0.00,,---,0.00,VWS V14.01,2013-07-04 11:06:00,
2013-07-04 07:11:00,75.3,71.5,30.16,SW,225,5.0,7.0,88,0.00,,---,0.00,VWS V14.01,2013-07-04 11:11:00,
2013-07-04 07:16:00,75.3,71.2,30.16,SSE,159,5.0,7.0,87,0.00,,---,0.00,VWS V14.01,2013-07-04 11:16:00,
2013-07-04 07:21:00,75.5,71.4,30.16,SSW,208,1.0,7.0,87,0.00,,---,0.00,VWS V14.01,2013-07-04 11:21:00,
2013-07-04 07:26:00,75.7,71.6,30.16,South,176,1.0,5.0,87,0.00,,---,0.00,VWS V14.01,2013-07-04 11:26:00,
2013-07-04 07:31:00,75.8,71.7,30.16,SSE,151,2.0,8.0,87,0.00,,---,0.00,VWS V14.01,2013-07-04 11:31:00,
2013-07-04 07:36:00,76.3,71.8,30.16,SE,139,4.0,8.0,86,0.00,,---,0.00,VWS V14.01,2013-07-04 11:36:00,
2013-07-04 07:41:00,76.9,72.1,30.16,SE,136,0.0,8.0,85,0.00,,---,0.00,VWS V14.01,2013-07-04 11:41:00,
2013-07-04 07:46:00,76.8,71.9,30.16,SSE,167,1.0,8.0,85,0.00,,---,0.00,VWS V14.01,2013-07-04 11:46:00,
2013-07-04 07:51:00,76.7,71.9,30.16,SSE,148,4.0,8.0,85,0.00,,---,0.00,VWS V14.01,2013-07-04 11:51:00,
2013-07-04 07:56:00,76.9,72.4,30.16,East,95,0.0,6.0,86,0.00,,---,0.00,VWS V14.01,2013-07-04 11:56:00,
2013-07-04 08:01:00,77.7,72.5,30.16,SE,132,5.0,7.0,84,0.00,,---,0.00,VWS V14.01,2013-07-04 12:01:00,
2013-07-04 08:06:00,78.0,72.4,30.16,East,90,6.0,7.0,83,0.00,,---,0.00,VWS V14.01,2013-07-04 12:06:00,
2013-07-04 08:11:00,77.7,72.5,30.16,SSW,192,3.0,7.0,84,0.00,,---,0.00,VWS V14.01,2013-07-04 12:11:00,
2013-07-04 08:16:00,77.8,72.6,30.17,East,81,4.0,8.0,84,0.00,,---,0.00,VWS V14.01,2013-07-04 12:16:00,
2013-07-04 08:21:00,77.4,71.8,30.16,SSE,167,1.0,8.0,83,0.00,,---,0.00,VWS V14.01,2013-07-04 12:21:00,
2013-07-04 08:26:00,77.1,71.9,30.16,South,181,2.0,6.0,84,0.00,,---,0.00,VWS V14.01,2013-07-04 12:26:00,
2013-07-04 08:31:00,77.2,72.0,30.17,East,95,4.0,6.0,84,0.00,,---,0.00,VWS V14.01,2013-07-04 12:31:00,
2013-07-04 08:36:00,77.4,72.2,30.17,East,84,3.0,6.0,84,0.00,,---,0.00,VWS V14.01,2013-07-04 12:36:00,
2013-07-04 08:41:00,77.5,72.3,30.16,SSW,210,0.0,6.0,84,0.00,,---,0.00,VWS V14.01,2013-07-04 12:41:00,
2013-07-04 08:46:00,77.3,72.1,30.17,East,82,0.0,6.0,84,0.00,,---,0.00,VWS V14.01,2013-07-04 12:46:00,
2013-07-04 08:51:00,77.1,71.9,30.17,ESE,111,2.0,7.0,84,0.00,,---,0.00,VWS V14.01,2013-07-04 12:51:00,
2013-07-04 08:56:00,76.8,71.9,30.17,SE,130,2.0,4.0,85,0.00,,---,0.00,VWS V14.01,2013-07-04 12:56:00,
2013-07-04 09:01:00,76.8,71.9,30.17,SE,132,1.0,5.0,85,0.00,,---,0.00,VWS V14.01,2013-07-04 13:01:00,
2013-07-04 09:06:00,76.7,71.9,30.17,SSE,148,0.0,6.0,85,0.00,,---,0.00,VWS V14.01,2013-07-04 13:06:00,
2013-07-04 09:11:00,76.7,71.9,30.17,East,91,1.0,6.0,85,0.00,,---,0.00,VWS V14.01,2013-07-04 13:11:00,
2013-07-04 09:16:00,76.7,71.9,30.17,East,98,2.0,6.0,85,0.00,,---,0.00,VWS V14.01,2013-07-04 13:16:00,
2013-07-04 09:21:00,76.8,71.9,30.17,East,98,1.0,6.0,85,0.00,,---,0.00,VWS V14.01,2013-07-04 13:21:00,
2013-07-04 09:26:00,76.7,71.5,30.17,East,98,1.0,5.0,84,0.00,,---,0.00,VWS V14.01,2013-07-04 13:26:00,
2013-07-04 09:31:00,76.7,71.9,30.17,East,98,1.0,5.0,85,0.00,,---,0.00,VWS V14.01,2013-07-04 13:31:00,
2013-07-04 09:36:00,76.6,71.8,30.17,East,98,4.0,6.0,85,0.00,,---,0.00,VWS V14.01,2013-07-04 13:36:00,
2013-07-04 09:41:00,76.6,72.1,30.17,ESE,111,2.0,6.0,86,0.00,,---,0.00,VWS V14.01,2013-07-04 13:41:00,
2013-07-04 09:46:00,76.6,71.8,30.17,ESE,111,0.0,6.0,85,0.00,,---,0.00,VWS V14.01,2013-07-04 13:46:00,
2013-07-04 09:51:00,76.7,71.9,30.17,ESE,111,1.0,6.0,85,0.00,,---,0.00,VWS V14.01,2013-07-04 13:51:00,
2013-07-04 09:56:00,76.7,71.5,30.17,ESE,111,0.0,2.0,84,0.00,,---,0.00,VWS V14.01,2013-07-04 13:56:00,
2013-07-04 10:01:00,76.8,71.6,30.17,ESE,109,4.0,5.0,84,0.00,,---,0.00,VWS V14.01,2013-07-04 14:01:00,
2013-07-04 10:06:00,77.0,71.8,30.17,ESE,110,1.0,5.0,84,0.00,,---,0.00,VWS V14.01,2013-07-04 14:06:00,
2013-07-04 10:11:00,77.3,72.1,30.17,East,81,0.0,5.0,84,0.00,,---,0.00,VWS V14.01,2013-07-04 14:11:00,
2013-07-04 10:16:00,77.9,72.3,30.17,ESE,111,2.0,6.0,83,0.00,,---,0.00,VWS V14.01,2013-07-04 14:16:00,
2013-07-04 10:21:00,78.4,72.4,30.17,SE,126,2.0,6.0,82,0.00,,---,0.00,VWS V14.01,2013-07-04 14:21:00,
2013-07-04 10:26:00,79.0,72.7,30.17,East,101,5.0,5.0,81,0.00,,---,0.00,VWS V14.01,2013-07-04 14:26:00,
2013-07-04 10:31:00,79.2,72.5,30.16,East,97,2.0,6.0,80,0.00,,---,0.00,VWS V14.01,2013-07-04 14:31:00,
2013-07-04 10:36:00,79.4,72.7,30.16,East,101,4.0,6.0,80,0.00,,---,0.00,VWS V14.01,2013-07-04 14:36:00,
2013-07-04 10:41:00,79.6,72.5,30.16,East,90,2.0,7.0,79,0.00,,---,0.00,VWS V14.01,2013-07-04 14:41:00,
2013-07-04 10:46:00,79.6,72.5,30.16,ESE,103,1.0,7.0,79,0.00,,---,0.00,VWS V14.01,2013-07-04 14:46:00,
2013-07-04 10:51:00,79.6,72.5,30.16,ESE,103,1.0,7.0,79,0.00,,---,0.00,VWS V14.01,2013-07-04 14:51:00,
2013-07-04 10:56:00,79.8,72.7,30.16,ESE,103,1.0,4.0,79,0.00,,---,0.00,VWS V14.01,2013-07-04 14:56:00,
2013-07-04 11:01:00,79.8,72.7,30.16,ESE,103,1.0,4.0,79,0.00,,---,0.00,VWS V14.01,2013-07-04 15:01:00,
2013-07-04 11:06:00,80.0,72.9,30.16,ESE,103,2.0,4.0,79,0.00,,---,0.00,VWS V14.01,2013-07-04 15:06:00,
2013-07-04 11:11:00,80.0,73.3,30.16,ESE,103,1.0,4.0,80,0.00,,---,0.00,VWS V14.01,2013-07-04 15:11:00,
2013-07-04 11:16:00,79.8,72.3,30.16,ESE,103,0.0,4.0,78,0.00,,---,0.00,VWS V14.01,2013-07-04 15:16:00,
2013-07-04 11:21:00,79.9,72.8,30.16,ESE,103,1.0,4.0,79,0.00,,---,0.00,VWS V14.01,2013-07-04 15:21:00,
2013-07-04 11:26:00,80.0,72.9,30.16,ESE,103,0.0,1.0,79,0.00,,---,0.00,VWS V14.01,2013-07-04 15:26:00,
2013-07-04 11:31:00,80.2,73.1,30.16,ESE,103,0.0,2.0,79,0.00,,---,0.00,VWS V14.01,2013-07-04 15:31:00,
2013-07-04 11:36:00,80.6,73.1,30.16,ESE,103,1.0,2.0,78,0.00,,---,0.00,VWS V14.01,2013-07-04 15:36:00,
2013-07-04 11:41:00,80.7,73.2,30.16,ESE,103,1.0,2.0,78,0.00,,---,0.00,VWS V14.01,2013-07-04 15:41:00,
2013-07-04 11:46:00,80.8,74.1,30.16,ESE,103,0.0,2.0,80,0.00,,---,0.00,VWS V14.01,2013-07-04 15:46:00,
2013-07-04 11:51:00,81.0,75.0,30.15,ESE,103,0.0,2.0,82,0.00,,---,0.00,VWS V14.01,2013-07-04 15:51:00,
2013-07-04 11:56:00,81.4,73.5,30.15,ESE,103,1.0,4.0,77,0.00,,---,0.00,VWS V14.01,2013-07-04 15:56:00,
2013-07-04 12:01:00,81.9,73.6,30.15,ESE,103,1.0,4.0,76,0.00,,---,0.00,VWS V14.01,2013-07-04 16:01:00,
2013-07-04 12:06:00,81.9,74.0,30.15,ESE,103,0.0,4.0,77,0.00,,---,0.00,VWS V14.01,2013-07-04 16:06:00,
2013-07-04 12:11:00,81.8,73.9,30.15,ESE,103,0.0,4.0,77,0.00,,---,0.00,VWS V14.01,2013-07-04 16:11:00,
2013-07-04 12:16:00,82.2,73.5,30.15,ESE,103,2.0,4.0,75,0.00,,---,0.00,VWS V14.01,2013-07-04 16:16:00,
2013-07-04 12:21:00,82.1,73.4,30.14,ESE,103,0.0,4.0,75,0.00,,---,0.00,VWS V14.01,2013-07-04 16:21:00,
2013-07-04 12:26:00,82.7,75.2,30.14,ESE,103,0.0,0.0,78,0.00,,---,0.00,VWS V14.01,2013-07-04 16:26:00,
2013-07-04 12:31:00,83.7,73.7,30.14,ESE,103,0.0,2.0,72,0.00,,---,0.00,VWS V14.01,2013-07-04 16:31:00,
2013-07-04 12:36:00,84.4,74.8,30.14,ESE,103,0.0,2.0,73,0.00,,---,0.00,VWS V14.01,2013-07-04 16:36:00,
2013-07-04 12:41:00,84.6,74.6,30.14,ESE,103,0.0,2.0,72,0.00,,---,0.00,VWS V14.01,2013-07-04 16:41:00,
2013-07-04 12:46:00,84.9,76.1,30.14,ESE,103,0.0,2.0,75,0.00,,---,0.00,VWS V14.01,2013-07-04 16:46:00,
2013-07-04 12:51:00,84.6,74.6,30.14,ESE,103,0.0,2.0,72,0.00,,---,0.00,VWS V14.01,2013-07-04 16:51:00,
2013-07-04 12:56:00,84.4,74.0,30.14,ESE,103,0.0,2.0,71,0.00,,---,0.00,VWS V14.01,2013-07-04 16:56:00,
2013-07-04 13:01:00,84.2,74.2,30.14,ESE,103,0.0,2.0,72,0.00,,---,0.00,VWS V14.01,2013-07-04 17:01:00,
2013-07-04 13:06:00,83.9,74.3,30.14,ESE,103,0.0,2.0,73,0.00,,---,0.00,VWS V14.01,2013-07-04 17:06:00,
2013-07-04 13:11:00,83.8,73.8,30.14,ESE,103,0.0,2.0,72,0.00,,---,0.00,VWS V14.01,2013-07-04 17:11:00,
2013-07-04 13:16:00,83.1,74.0,30.15,ESE,103,2.0,4.0,74,0.00,,---,0.00,VWS V14.01,2013-07-04 17:16:00,
2013-07-04 13:21:00,82.0,73.3,30.14,NW,304,0.0,4.0,75,0.00,,---,0.00,VWS V14.01,2013-07-04 17:21:00,
2013-07-04 13:26:00,81.5,73.6,30.14,NW,304,3.0,3.0,77,0.00,,---,0.00,VWS V14.01,2013-07-04 17:26:00,
2013-07-04 13:31:00,81.1,74.0,30.14,NW,304,0.0,3.0,79,0.00,,---,0.00,VWS V14.01,2013-07-04 17:31:00,
2013-07-04 13:36:00,80.9,73.8,30.14,NW,304,1.0,3.0,79,0.00,,---,0.00,VWS V14.01,2013-07-04 17:36:00,
2013-07-04 13:41:00,81.0,74.6,30.14,NW,304,0.0,3.0,81,0.00,,---,0.00,VWS V14.01,2013-07-04 17:41:00,
2013-07-04 13:47:00,81.3,73.4,30.14,NW,304,0.0,3.0,77,0.00,,---,0.00,VWS V14.01,2013-07-04 17:47:00,
2013-07-04 13:52:00,81.2,73.3,30.14,NW,304,1.0,3.0,77,0.00,,---,0.00,VWS V14.01,2013-07-04 17:52:00,
2013-07-04 13:57:00,80.7,73.6,30.13,NW,304,1.0,3.0,79,0.00,,---,0.00,VWS V14.01,2013-07-04 17:57:00,
2013-07-04 14:02:00,79.8,73.4,30.15,NW,304,1.0,3.0,81,0.00,,---,0.00,VWS V14.01,2013-07-04 18:02:00,
2013-07-04 14:07:00,79.6,73.3,30.14,NW,304,1.0,3.0,81,0.00,,---,0.00,VWS V14.01,2013-07-04 18:07:00,
2013-07-04 14:12:00,79.6,73.6,30.14,NW,304,3.0,3.0,82,0.00,,---,0.00,VWS V14.01,2013-07-04 18:12:00,
2013-07-04 14:17:00,80.3,74.7,30.14,NW,304,0.0,4.0,83,0.00,,---,0.00,VWS V14.01,2013-07-04 18:17:00,
2013-07-04 14:22:00,81.2,74.8,30.14,NW,325,0.0,4.0,81,0.00,,---,0.00,VWS V14.01,2013-07-04 18:22:00,
2013-07-04 14:27:00,81.9,74.8,30.14,NW,325,1.0,3.0,79,0.00,,---,0.00,VWS V14.01,2013-07-04 18:27:00,
2013-07-04 14:32:00,82.1,74.6,30.14,NW,325,0.0,3.0,78,0.00,,---,0.00,VWS V14.01,2013-07-04 18:32:00,
2013-07-04 14:37:00,82.4,75.2,30.14,NW,316,1.0,3.0,79,0.00,,---,0.00,VWS V14.01,2013-07-04 18:37:00,
2013-07-04 14:42:00,82.4,74.9,30.14,WSW,255,0.0,4.0,78,0.00,,---,0.00,VWS V14.01,2013-07-04 18:42:00,
2013-07-04 14:47:00,82.6,75.1,30.14,NNE,15,0.0,4.0,78,0.00,,---,0.00,VWS V14.01,2013-07-04 18:47:00,
2013-07-04 14:52:00,82.9,74.9,30.13,NNE,17,0.0,4.0,77,0.00,,---,0.00,VWS V14.01,2013-07-04 18:52:00,
2013-07-04 14:57:00,83.0,75.1,30.13,NNE,17,0.0,2.0,77,0.00,,---,0.00,VWS V14.01,2013-07-04 18:57:00,
2013-07-04 15:02:00,82.4,74.1,30.13,NNE,27,0.0,3.0,76,0.00,,---,0.00,VWS V14.01,2013-07-04 19:02:00,
2013-07-04 15:07:00,81.8,73.9,30.13,NNE,26,1.0,3.0,77,0.00,,---,0.00,VWS V14.01,2013-07-04 19:07:00,
2013-07-04 15:12:00,81.3,74.2,30.13,SE,140,0.0,3.0,79,0.00,,---,0.00,VWS V14.01,2013-07-04 19:12:00,
2013-07-04 15:17:00,81.4,74.6,30.13,SE,140,0.0,3.0,80,0.00,,---,0.00,VWS V14.01,2013-07-04 19:17:00,
2013-07-04 15:22:00,81.8,74.3,30.13,NNW,340,0.0,4.0,78,0.00,,---,0.00,VWS V14.01,2013-07-04 19:22:00,
2013-07-04 15:27:00,81.8,73.9,30.13,NNE,28,0.0,1.0,77,0.00,,---,0.00,VWS V14.01,2013-07-04 19:27:00,
2013-07-04 15:32:00,81.9,74.8,30.13,NNE,28,0.0,1.0,79,0.00,,---,0.00,VWS V14.01,2013-07-04 19:32:00,
2013-07-04 15:37:00,81.8,74.7,30.13,NNE,28,0.0,1.0,79,0.00,,---,0.00,VWS V14.01,2013-07-04 19:37:00,
2013-07-04 15:42:00,81.7,74.6,30.12,NNE,28,0.0,2.0,79,0.00,,---,0.00,VWS V14.01,2013-07-04 19:42:00,
2013-07-04 15:47:00,81.8,74.7,30.12,NNE,28,0.0,2.0,79,0.00,,---,0.00,VWS V14.01,2013-07-04 19:47:00,
2013-07-04 15:52:00,81.8,73.9,30.12,NNE,28,0.0,2.0,77,0.00,,---,0.00,VWS V14.01,2013-07-04 19:52:00,
2013-07-04 15:57:00,82.1,74.6,30.12,North,9,0.0,3.0,78,0.00,,---,0.00,VWS V14.01,2013-07-04 19:57:00,
2013-07-04 16:02:00,82.9,75.3,30.12,North,9,1.0,3.0,78,0.00,,---,0.00,VWS V14.01,2013-07-04 20:02:00,
2013-07-04 16:07:00,83.3,73.8,30.12,North,9,0.0,3.0,73,0.00,,---,0.00,VWS V14.01,2013-07-04 20:07:00,
2013-07-04 16:12:00,83.1,74.4,30.11,NNE,19,0.0,3.0,75,0.00,,---,0.00,VWS V14.01,2013-07-04 20:12:00,
2013-07-04 16:17:00,83.2,74.8,30.12,NNE,19,0.0,3.0,76,0.00,,---,0.00,VWS V14.01,2013-07-04 20:17:00,
2013-07-04 16:22:00,83.5,75.1,30.11,NNE,19,0.0,3.0,76,0.00,,---,0.00,VWS V14.01,2013-07-04 20:22:00,
2013-07-04 16:27:00,84.1,76.1,30.11,NNE,19,0.0,1.0,77,0.00,,---,0.00,VWS V14.01,2013-07-04 20:27:00,
2013-07-04 16:32:00,84.2,74.6,30.11,NNE,19,1.0,1.0,73,0.00,,---,0.00,VWS V14.01,2013-07-04 20:32:00,
2013-07-04 16:37:00,83.6,74.4,30.11,NNE,19,0.0,1.0,74,0.00,,---,0.00,VWS V14.01,2013-07-04 20:37:00,
2013-07-04 16:42:00,83.3,73.8,30.11,NNE,19,0.0,2.0,73,0.00,,---,0.00,VWS V14.01,2013-07-04 20:42:00,
2013-07-04 16:47:00,82.9,73.8,30.11,NNE,19,1.0,2.0,74,0.00,,---,0.00,VWS V14.01,2013-07-04 20:47:00,
2013-07-04 16:52:00,82.9,73.8,30.11,NNE,19,1.0,2.0,74,0.00,,---,0.00,VWS V14.01,2013-07-04 20:52:00,
2013-07-04 16:57:00,83.0,73.9,30.10,NNE,19,0.0,2.0,74,0.00,,---,0.00,VWS V14.01,2013-07-04 20:57:00,
2013-07-04 17:02:00,82.8,73.3,30.10,NNE,19,0.0,2.0,73,0.00,,---,0.00,VWS V14.01,2013-07-04 21:02:00,
2013-07-04 17:07:00,82.5,73.0,30.10,NNE,19,2.0,2.0,73,0.00,,---,0.00,VWS V14.01,2013-07-04 21:07:00,
2013-07-04 17:12:00,82.2,73.1,30.10,NNE,19,0.0,2.0,74,0.00,,---,0.00,VWS V14.01,2013-07-04 21:12:00,
2013-07-04 17:17:00,82.3,72.8,30.10,NNE,19,1.0,2.0,73,0.00,,---,0.00,VWS V14.01,2013-07-04 21:17:00,
2013-07-04 17:22:00,82.3,73.2,30.10,NNE,19,0.0,2.0,74,0.00,,---,0.00,VWS V14.01,2013-07-04 21:22:00,
2013-07-04 17:27:00,82.3,73.2,30.10,NNE,19,0.0,0.0,74,0.00,,---,0.00,VWS V14.01,2013-07-04 21:27:00,
2013-07-04 17:32:00,82.7,73.2,30.10,NNE,19,0.0,1.0,73,0.00,,---,0.00,VWS V14.01,2013-07-04 21:32:00,
2013-07-04 17:37:00,82.7,73.2,30.10,NNE,19,0.0,2.0,73,0.00,,---,0.00,VWS V14.01,2013-07-04 21:37:00,
2013-07-04 17:42:00,82.5,73.8,30.09,NNE,19,0.0,2.0,75,0.00,,---,0.00,VWS V14.01,2013-07-04 21:42:00,
2013-07-04 17:47:00,82.4,72.9,30.09,NNE,19,0.0,2.0,73,0.00,,---,0.00,VWS V14.01,2013-07-04 21:47:00,
2013-07-04 17:52:00,82.4,73.3,30.09,NNE,19,0.0,2.0,74,0.00,,---,0.00,VWS V14.01,2013-07-04 21:52:00,
2013-07-04 17:57:00,82.2,72.7,30.10,NNE,19,0.0,1.0,73,0.00,,---,0.00,VWS V14.01,2013-07-04 21:57:00,
2013-07-04 18:02:00,82.2,72.7,30.10,NNE,19,0.0,2.0,73,0.00,,---,0.00,VWS V14.01,2013-07-04 22:02:00,
2013-07-04 18:07:00,82.3,72.8,30.09,NNE,19,0.0,2.0,73,0.00,,---,0.00,VWS V14.01,2013-07-04 22:07:00,
2013-07-04 18:12:00,82.5,73.4,30.09,NNE,19,1.0,2.0,74,0.00,,---,0.00,VWS V14.01,2013-07-04 22:12:00,
2013-07-04 18:17:00,82.5,73.4,30.09,NNE,19,0.0,2.0,74,0.00,,---,0.00,VWS V14.01,2013-07-04 22:17:00,
2013-07-04 18:22:00,82.3,73.2,30.10,NNE,19,0.0,2.0,74,0.00,,---,0.00,VWS V14.01,2013-07-04 22:22:00,
2013-07-04 18:27:00,81.9,74.4,30.10,NNE,19,0.0,1.0,78,0.00,,---,0.00,VWS V14.01,2013-07-04 22:27:00,
2013-07-04 18:32:00,81.7,73.8,30.10,NNE,19,0.0,1.0,77,0.00,,---,0.00,VWS V14.01,2013-07-04 22:32:00,
2013-07-04 18:37:00,81.3,74.5,30.10,NNE,19,0.0,1.0,80,0.00,,---,0.00,VWS V14.01,2013-07-04 22:37:00,
2013-07-04 18:42:00,80.9,74.9,30.10,NNE,19,2.0,3.0,82,0.00,,---,0.00,VWS V14.01,2013-07-04 22:42:00,
2013-07-04 18:47:00,80.3,74.3,30.10,NNE,19,0.0,3.0,82,0.01,,---,0.01,VWS V14.01,2013-07-04 22:47:00,
2013-07-04 18:52:00,80.2,74.2,30.10,NNE,19,0.0,3.0,82,0.01,,---,0.01,VWS V14.01,2013-07-04 22:52:00,
2013-07-04 18:57:00,80.1,74.5,30.10,NNE,19,0.0,1.0,83,0.01,,---,0.01,VWS V14.01,2013-07-04 22:57:00,
2013-07-04 19:02:00,79.8,73.8,30.11,NNE,19,0.0,1.0,82,0.01,,---,0.01,VWS V14.01,2013-07-04 23:02:00,
2013-07-04 19:07:00,79.8,73.8,30.11,NNE,19,0.0,1.0,82,0.01,,---,0.01,VWS V14.01,2013-07-04 23:07:00,
2013-07-04 19:12:00,79.8,74.2,30.11,ENE,71,1.0,5.0,83,0.01,,---,0.01,VWS V14.01,2013-07-04 23:12:00,
2013-07-04 19:17:00,79.4,74.2,30.11,ENE,71,0.0,5.0,84,0.01,,---,0.01,VWS V14.01,2013-07-04 23:17:00,
2013-07-04 19:22:00,79.2,74.3,30.11,ENE,71,0.0,5.0,85,0.01,,---,0.01,VWS V14.01,2013-07-04 23:22:00,
2013-07-04 19:27:00,79.0,74.1,30.10,ENE,71,1.0,1.0,85,0.01,,---,0.01,VWS V14.01,2013-07-04 23:27:00,
2013-07-04 19:32:00,78.7,73.8,30.11,ENE,71,0.0,1.0,85,0.01,,---,0.01,VWS V14.01,2013-07-04 23:32:00,
2013-07-04 19:37:00,78.4,73.5,30.10,ENE,71,0.0,1.0,85,0.01,,---,0.01,VWS V14.01,2013-07-04 23:37:00,
2013-07-04 19:42:00,78.3,73.4,30.10,ENE,71,0.0,1.0,85,0.01,,---,0.01,VWS V14.01,2013-07-04 23:42:00,
2013-07-04 19:47:00,78.2,73.7,30.10,ENE,71,0.0,1.0,86,0.01,,---,0.01,VWS V14.01,2013-07-04 23:47:00,
2013-07-04 19:52:00,78.1,73.9,30.11,ENE,71,0.0,1.0,87,0.01,,---,0.01,VWS V14.01,2013-07-04 23:52:00,
2013-07-04 19:57:00,78.0,74.2,30.11,ENE,71,0.0,2.0,88,0.00,,---,0.01,VWS V14.01,2013-07-04 23:57:00,
2013-07-04 20:02:00,78.0,74.5,30.11,ENE,71,0.0,2.0,89,0.00,,---,0.01,VWS V14.01,2013-07-05 00:02:00,
2013-07-04 20:07:00,77.9,74.4,30.11,ENE,71,0.0,2.0,89,0.00,,---,0.01,VWS V14.01,2013-07-05 00:07:00,
2013-07-04 20:12:00,77.8,74.3,30.11,ENE,71,0.0,2.0,89,0.00,,---,0.01,VWS V14.01,2013-07-05 00:12:00,
2013-07-04 20:17:00,77.7,74.2,30.11,ENE,71,0.0,2.0,89,0.00,,---,0.01,VWS V14.01,2013-07-05 00:17:00,
2013-07-04 20:22:00,77.7,74.2,30.11,ENE,71,0.0,2.0,89,0.00,,---,0.01,VWS V14.01,2013-07-05 00:22:00,
2013-07-04 20:27:00,77.6,74.1,30.11,ENE,71,0.0,0.0,89,0.00,,---,0.01,VWS V14.01,2013-07-05 00:27:00,
2013-07-04 20:32:00,77.6,74.4,30.11,ENE,71,0.0,0.0,90,0.00,,---,0.01,VWS V14.01,2013-07-05 00:32:00,
2013-07-04 20:37:00,77.5,74.3,30.11,ENE,71,0.0,0.0,90,0.00,,---,0.01,VWS V14.01,2013-07-05 00:37:00,
2013-07-04 20:42:00,77.4,74.6,30.11,ENE,71,0.0,1.0,91,0.00,,---,0.01,VWS V14.01,2013-07-05 00:42:00,
2013-07-04 20:47:00,77.3,74.5,30.11,ENE,71,0.0,1.0,91,0.00,,---,0.01,VWS V14.01,2013-07-05 00:47:00,
2013-07-04 20:52:00,77.1,74.6,30.11,ENE,71,0.0,1.0,92,0.00,,---,0.01,VWS V14.01,2013-07-05 00:52:00,
2013-07-04 20:57:00,77.0,74.5,30.11,ENE,71,0.0,0.0,92,0.00,,---,0.01,VWS V14.01,2013-07-05 00:57:00,
2013-07-04 21:02:00,76.8,74.3,30.11,ENE,71,0.0,0.0,92,0.00,,---,0.01,VWS V14.01,2013-07-05 01:02:00,
2013-07-04 21:03:00,76.8,74.3,30.11,ENE,71,0.0,0.0,92,0.00,,---,0.01,VWS V14.01,2013-07-05 01:03:00,
2013-07-04 21:08:00,76.6,74.1,30.11,ENE,71,0.0,0.0,92,0.00,,---,0.01,VWS V14.01,2013-07-05 01:08:00,
2013-07-04 21:13:00,76.4,74.2,30.11,ENE,71,0.0,0.0,93,0.00,,---,0.01,VWS V14.01,2013-07-05 01:13:00,
2013-07-04 21:18:00,76.2,74.0,30.11,ENE,71,0.0,0.0,93,0.00,,---,0.01,VWS V14.01,2013-07-05 01:18:00,
2013-07-04 21:23:00,76.0,73.8,30.11,ENE,71,0.0,0.0,93,0.00,,---,0.01,VWS V14.01,2013-07-05 01:23:00,
2013-07-04 21:28:00,75.8,73.6,30.11,ENE,71,0.0,0.0,93,0.00,,---,0.01,VWS V14.01,2013-07-05 01:28:00,
2013-07-04 21:33:00,75.5,73.3,30.12,ENE,71,0.0,0.0,93,0.00,,---,0.01,VWS V14.01,2013-07-05 01:33:00,
2013-07-04 21:38:00,75.4,73.6,30.12,ENE,71,0.0,0.0,94,0.00,,---,0.01,VWS V14.01,2013-07-05 01:38:00,
2013-07-04 21:43:00,75.1,72.9,30.12,ENE,71,0.0,0.0,93,0.00,,---,0.01,VWS V14.01,2013-07-05 01:43:00,
2013-07-04 21:48:00,74.9,73.1,30.12,ENE,71,0.0,0.0,94,0.00,,---,0.01,VWS V14.01,2013-07-05 01:48:00,
2013-07-04 21:53:00,74.7,72.9,30.12,ENE,71,0.0,0.0,94,0.00,,---,0.01,VWS V14.01,2013-07-05 01:53:00,
2013-07-04 21:58:00,74.4,72.6,30.12,ENE,71,0.0,0.0,94,0.00,,---,0.01,VWS V14.01,2013-07-05 01:58:00,
2013-07-04 22:03:00,74.4,72.6,30.12,ENE,71,0.0,1.0,94,0.00,,---,0.01,VWS V14.01,2013-07-05 02:03:00,
2013-07-04 22:08:00,74.4,72.6,30.12,ENE,71,0.0,1.0,94,0.00,,---,0.01,VWS V14.01,2013-07-05 02:08:00,
2013-07-04 22:13:00,74.3,72.5,30.12,ENE,71,0.0,1.0,94,0.00,,---,0.01,VWS V14.01,2013-07-05 02:13:00,
2013-07-04 22:18:00,74.4,72.9,30.13,ENE,71,0.0,1.0,95,0.00,,---,0.01,VWS V14.01,2013-07-05 02:18:00,
2013-07-04 22:23:00,74.3,72.8,30.13,ENE,71,0.0,1.0,95,0.00,,---,0.01,VWS V14.01,2013-07-05 02:23:00,
2013-07-04 22:28:00,74.4,72.9,30.13,ENE,71,0.0,1.0,95,0.00,,---,0.01,VWS V14.01,2013-07-05 02:28:00,
2013-07-04 22:33:00,74.3,72.8,30.13,ENE,71,0.0,2.0,95,0.00,,---,0.01,VWS V14.01,2013-07-05 02:33:00,
2013-07-04 22:38:00,74.4,72.9,30.13,ENE,71,0.0,2.0,95,0.00,,---,0.01,VWS V14.01,2013-07-05 02:38:00,
2013-07-04 22:43:00,74.4,72.9,30.13,ENE,71,0.0,2.0,95,0.00,,---,0.01,VWS V14.01,2013-07-05 02:43:00,
2013-07-04 22:48:00,74.4,72.9,30.12,ENE,71,0.0,2.0,95,0.00,,---,0.01,VWS V14.01,2013-07-05 02:48:00,
2013-07-04 22:53:00,74.4,72.9,30.12,ENE,71,0.0,2.0,95,0.00,,---,0.01,VWS V14.01,2013-07-05 02:53:00,
2013-07-04 22:58:00,74.4,72.9,30.12,ENE,71,0.0,0.0,95,0.00,,---,0.01,VWS V14.01,2013-07-05 02:58:00,
2013-07-04 23:03:00,74.4,72.9,30.13,ENE,71,0.0,1.0,95,0.00,,---,0.01,VWS V14.01,2013-07-05 03:03:00,
2013-07-04 23:08:00,74.2,72.7,30.13,ENE,71,0.0,1.0,95,0.00,,---,0.01,VWS V14.01,2013-07-05 03:08:00,
2013-07-04 23:13:00,74.1,72.6,30.13,ENE,71,0.0,1.0,95,0.00,,---,0.01,VWS V14.01,2013-07-05 03:13:00,
2013-07-04 23:18:00,74.0,72.5,30.13,ENE,71,0.0,1.0,95,0.00,,---,0.01,VWS V14.01,2013-07-05 03:18:00,
2013-07-04 23:23:00,74.0,72.5,30.13,ENE,71,0.0,2.0,95,0.00,,---,0.01,VWS V14.01,2013-07-05 03:23:00,
2013-07-04 23:28:00,73.9,72.4,30.13,ENE,71,0.0,0.0,95,0.00,,---,0.01,VWS V14.01,2013-07-05 03:28:00,
2013-07-04 23:33:00,73.8,72.3,30.13,ENE,71,0.0,3.0,95,0.00,,---,0.01,VWS V14.01,2013-07-05 03:33:00,
2013-07-04 23:38:00,73.9,72.4,30.13,ENE,71,0.0,3.0,95,0.00,,---,0.01,VWS V14.01,2013-07-05 03:38:00,
2013-07-04 23:43:00,73.9,72.4,30.13,SSE,161,4.0,4.0,95,0.00,,---,0.01,VWS V14.01,2013-07-05 03:43:00,
2013-07-04 23:48:00,73.9,72.4,30.13,East,98,0.0,4.0,95,0.00,,---,0.01,VWS V14.01,2013-07-05 03:48:00,
2013-07-04 23:53:00,73.9,72.4,30.12,SSW,211,0.0,6.0,95,0.00,,---,0.01,VWS V14.01,2013-07-05 03:53:00,
2013-07-04 23:58:00,73.9,72.4,30.12,SSW,211,1.0,3.0,95,0.00,,---,0.00,VWS V14.01,2013-07-05 03:58:00,